Temperature
17 17 18 18 15 14 16 17 18 19 19 19 19 18 17 17 17 17 16 16 16 16 16 15 15 15 15 15 15 15 15 15 15 15 15 14 14 14 14 14 14 14 14 14 14 14 14 14 14
17 17 18 17 14 15 16 16 17 18 19 19 19 18 16 16 16 16 16 16 16 16 16 15 15 15 15 15 15 15 15 15 14 14 14 14 14 14 14 14 14 14 14 14 14 14 14 14 14
17 17 17 13 14 15 17 17 17 18 19 19 18 17 16 16 16 16 16 16 16 16 16 15 15 15 15 15 15 15 15 15 14 14 14 14 14 14 14 14 14 14 14 14 14 14 14 14 14
17 17 16 13 15 15 17 17 17 18 19 19 18 16 16 16 16 16 16 16 16 16 15 15 15 15 15 14 14 14 14 14 14 14 14 14 14 14 14 14 14 14 14 14 14 14 14 14 13
17 16 14 13 15 15 16 17 18 17 17 18 17 15 15 16 16 16 16 16 16 15 15 15 15 14 14 14 14 14 14 14 14 14 14 14 14 14 14 14 14 13 13 13 13 13 13 13 13
16 13 13 13 15 16 16 18 18 17 17 17 16 15 14 15 15 15 15 15 15 15 15 15 14 14 14 14 14 14 14 14 14 14 14 14 14 14 14 14 13 13 13 13 13 13 13 13 13
15 12 13 14 14 15 16 17 17 16 16 16 17 14 14 14 15 15 15 15 15 15 14 14 14 14 14 14 14 14 14 14 14 14 13 14 14 14 13 13 13 13 13 13 13 13 13 13 13
15 12 14 13 14 15 16 17 17 17 16 16 17 14 14 14 14 14 14 14 14 14 14 14 14 14 14 14 13 13 13 13 13 13 13 13 13 13 13 13 13 13 13 13 13 12 12 12 12
15 11 12 14 15 15 15 16 16 16 16 15 15 15 15 15 14 14 14 14 14 14 14 13 13 13 13 13 13 13 13 13 13 13 13 13 13 13 13 13 13 13 13 12 12 12 12 12 12
14 11 13 14 14 14 14 15 15 15 14 14 14 15 14 14 14 14 14 14 14 13 13 13 13 13 13 13 13 13 13 13 13 13 13 13 13 13 13 12 12 12 12 12 12 12 12 12 12
12 11 13 13 14 14 14 14 14 14 13 13 14 14 14 14 14 14 13 13 13 13 13 13 13 13 13 12 12 12 12 12 12 12 12 12 12 12 12 12 12 12 12 12 12 12 12 12 12
11 12 13 13 14 14 13 13 13 13 14 15 14 14 13 13 13 13 13 13 13 13 12 12 12 12 12 12 12 12 12 12 12 12 12 12 12 12 12 12 12 11 11 11 11 11 11 11 11
11 12 13 13 13 13 13 12 12 13 14 14 14 13 13 13 13 13 13 12 12 12 12 12 12 12 12 12 12 12 12 12 12 12 12 11 11 11 11 11 11 11 11 11 11 11 11 11 11
11 11 12 12 12 12 12 12 12 12 13 13 13 13 13 12 12 12 12 12 12 12 12 12 12 12 12 12 12 12 12 12 12 11 11 11 11 11 11 11 11 11 11 10 10 10 11 11 11
12 11 11 11 12 12 12 11 10 12 12 12 12 12 12 12 12 12 12 12 12 11 11 11 11 11 11 11 11 11 11 11 11 11 11 11 11 11 11 10 10 10 10 10 10 10 10 10 10
11 10 10 11 11 11 11 10 10 12 12 11 11 11 11 11 11 11 11 11 11 11 11 11 11 11 11 11 11 11 11 11 11 11 10 10 10 10 10 10 10 10 10 10 10 10 10 10 10
9 9 9 10 10 10 10 9 10 11 11 11 11 11 11 11 11 11 11 11 11 11 11 11 11 11 11 11 10 10 10 10 10 10 10 10 10 10 10 10 9 9 9 9 9 9 9 9 9
9 9 9 9 10 9 9 8 9 10 10 10 10 10 10 10 11 11 11 11 11 11 10 10 10 10 10 10 10 10 10 10 10 9 9 10 9 9 9 9 9 9 9 9 9 9 8 8 8
9 9 9 9 9 9 8 8 8 9 9 9 9 9 9 10 10 10 10 10 10 10 10 10 10 10 10 10 9 9 9 9 9 9 9 9 9 9 9 9 9 8 8 8 8 8 8 8 8
9 8 8 9 9 9 8 7 8 8 8 9 9 9 9 9 9 10 10 10 10 10 10 10 9 9 9 9 9 9 9 9 9 8 8 8 8 8 8 8 8 8 8 8 8 8 7 7 7
8 8 8 8 8 8 7 7 8 8 9 9 9 9 9 9 9 9 9 9 9 9 9 9 9 9 9 9 8 8 8 8 8 8 8 8 8 8 8 8 7 7 7 7 7 7 7 6 6
7 8 8 8 7 6 7 6 7 7 7 7 8 8 9 9 9 9 9 9 9 9 9 9 9 8 8 8 8 8 8 8 8 7 7 7 7 7 7 7 7 7 7 7 6 6 6 6 6
7 8 7 7 6 5 6 5 6 6 7 7 7 8 8 9 9 9 9 9 9 9 8 8 8 8 8 7 7 7 7 7 7 7 7 7 7 6 6 6 6 6 6 6 6 6 6 5 5
7 7 6 5 4 5 5 5 6 6 7 7 7 8 8 8 8 8 8 8 8 8 8 8 8 7 7 7 7 7 6 6 6 6 6 6 6 6 6 6 6 6 5 5 5 5 5 5 5
6 5 5 5 4 5 5 5 6 6 7 7 7 7 8 8 8 7 7 7 7 7 7 7 7 7 6 6 6 6 6 6 6 6 6 6 5 5 5 5 5 5 5 5 5 4 4 4 4
5 5 5 5 5 5 5 5 5 6 6 7 7 7 7 7 7 7 7 7 7 7 7 6 6 6 6 6 6 6 5 5 5 5 5 5 5 5 5 4 4 4 4 4 4 4 4 4 4
5 4 5 4 3 4 4 4 5 6 6 6 6 6 6 6 6 6 6 6 6 6 6 6 6 6 5 5 5 5 5 5 5 4 4 4 4 4 4 4 4 4 4 4 3 3 3 3 3
5 4 3 3 4 5 5 4 5 6 5 5 4 5 6 6 6 6 6 6 6 6 5 5 5 5 5 5 5 4 4 4 4 4 4 4 4 3 3 3 3 3 3 3 3 3 3 3 3
4 4 3 2 2 4 4 5 5 5 5 5 4 5 5 6 6 5 5 5 5 5 5 5 4 4 4 4 4 4 4 4 3 3 3 3 3 3 3 3 3 3 3 3 3 3 2 2 2
4 3 3 3 2 2 2 4 5 4 4 4 4 5 5 5 5 5 4 4 4 4 4 4 4 4 4 4 4 3 3 3 3 3 3 2 2 2 2 2 2 2 2 2 2 2 2 2 2
Wind_Speed
11 8 2 4 5 4 2 4 3 1 1 1 3 7 8 5 3 4 2 4 8 9 10 12 12 12 11 11 10 10 10 10 9 9 9 10 10 10 9 9 9 10 10 10 10 10 10 10 10
6 3 4 5 5 2 4 4 3 3 4 4 4 5 6 4 3 6 3 4 10 10 11 11 12 12 11 11 10 10 10 10 9 9 9 9 9 9 9 9 9 9 9 9 10 9 9 9 9
4 2 4 4 3 6 5 4 5 3 1 2 3 4 5 4 4 4 4 7 10 9 11 12 12 12 11 10 10 10 10 10 9 9 9 9 8 9 9 9 8 8 9 9 9 9 8 8 8
3 4 5 3 4 4 5 4 3 2 1 3 4 4 3 1 3 5 7 9 10 8 10 12 12 11 11 10 10 9 9 9 9 8 8 8 8 8 8 8 8 7 8 8 8 8 7 7 7
4 4 3 0 4 4 4 4 3 3 2 2 4 5 2 4 4 9 9 10 10 7 8 11 11 11 11 10 10 9 9 9 9 8 8 8 7 7 6 7 6 6 6 6 7 6 6 6 6
4 4 3 4 5 4 3 3 2 2 2 2 4 5 2 1 5 8 9 9 9 8 8 9 10 11 10 10 9 8 8 8 8 8 7 7 6 6 6 6 6 6 5 5 6 5 5 5 5
4 4 4 4 4 3 3 1 2 3 2 1 4 6 2 1 4 7 8 8 8 8 7 7 8 9 10 9 9 8 7 7 7 7 6 6 5 5 5 5 5 5 4 4 4 4 4 3 3
4 4 2 3 4 4 3 1 0 3 2 1 4 7 5 6 5 7 8 7 7 6 5 6 7 7 8 8 8 8 7 7 6 6 5 5 4 4 4 4 4 4 3 3 3 3 3 2 2
3 3 3 4 4 3 1 1 3 2 4 3 3 2 4 8 8 9 7 6 5 5 4 5 6 6 7 7 7 7 6 6 5 5 4 4 3 3 3 3 3 3 2 2 2 2 2 1 1
4 4 5 3 2 2 1 1 0 3 4 3 4 5 6 8 8 8 7 6 5 4 4 4 5 5 6 6 6 5 4 4 4 4 3 3 3 2 2 3 3 2 2 1 1 0 1 1 1
4 5 3 2 1 1 1 2 2 4 1 3 4 5 6 6 7 7 6 5 4 4 4 3 4 5 5 5 5 4 3 3 3 3 3 3 3 3 2 2 1 1 1 1 1 1 1 0 1
3 2 2 2 1 1 0 0 2 1 4 3 6 8 7 7 6 6 6 5 4 4 3 3 3 4 4 5 4 4 3 2 2 2 3 3 3 2 2 1 1 1 0 1 1 1 1 1 1
3 2 1 0 1 1 2 0 0 3 3 2 5 6 7 7 5 4 5 4 4 4 3 3 4 4 4 4 3 3 3 2 2 2 3 4 3 2 2 1 1 1 1 1 1 1 2 2 1
2 2 2 2 1 1 1 2 1 4 1 3 4 5 5 6 5 4 4 3 3 3 3 3 3 3 4 3 3 2 2 2 2 2 2 4 4 3 2 1 1 0 1 0 0 1 1 1 1
1 0 3 3 2 2 2 4 4 4 2 3 3 3 3 3 4 5 5 4 3 3 2 2 3 3 3 3 2 2 3 3 3 2 3 3 4 4 2 1 1 1 0 0 1 1 1 1 2
2 1 2 4 3 2 4 6 5 2 4 3 3 3 3 2 3 3 4 4 3 3 2 2 2 2 2 3 2 3 3 3 3 3 3 3 3 3 3 1 1 0 1 1 0 0 1 1 2
1 2 4 4 2 3 4 6 6 2 4 4 4 3 3 3 2 2 3 4 3 3 3 2 2 3 3 3 3 3 3 3 2 3 2 2 2 3 3 2 1 1 1 1 1 0 0 1 2
5 4 3 5 2 3 4 7 7 3 5 6 5 4 4 4 4 3 2 3 3 3 3 3 2 2 2 2 2 2 2 2 2 2 2 1 1 2 3 2 1 1 1 1 1 1 1 1 1
4 4 3 4 2 2 6 8 9 5 4 6 6 5 5 5 3 2 2 2 2 2 2 2 2 2 2 2 2 1 1 1 1 1 1 1 1 2 2 1 1 1 2 2 1 1 0 1 1
3 3 3 3 1 1 4 8 8 6 6 7 8 7 6 4 2 2 2 2 2 2 2 2 2 2 2 2 2 2 2 1 1 1 2 1 0 2 2 2 2 2 2 1 1 1 1 1 1
4 5 5 3 3 2 2 6 5 4 3 4 5 6 6 7 7 5 4 3 2 2 2 2 2 2 2 2 2 2 2 1 0 1 1 2 1 2 2 2 2 2 2 2 2 3 2 1 1
6 4 3 3 1 3 1 4 6 5 4 4 5 5 6 6 6 6 5 4 4 3 2 2 2 2 2 2 3 3 2 2 2 2 2 2 2 1 1 2 2 2 2 3 3 2 2 3 2
5 2 2 2 3 2 2 3 7 3 5 6 6 7 7 7 7 6 6 5 4 3 2 1 1 1 1 2 3 3 2 2 1 1 1 2 1 1 1 1 1 2 2 3 2 2 2 3 3
2 4 4 3 3 3 6 5 6 5 7 5 4 4 5 5 4 4 3 3 2 1 1 1 1 1 1 1 2 3 3 2 2 1 1 2 1 1 1 1 1 1 1 2 2 2 2 3 3
3 4 2 2 1 6 4 5 8 6 5 6 5 4 4 4 4 4 3 3 2 1 1 1 1 1 0 1 2 3 3 4 4 3 3 2 1 1 2 1 1 1 1 1 1 1 2 3 3
4 6 6 5 5 4 2 6 6 4 3 2 3 3 3 3 3 4 4 3 3 2 1 1 1 1 1 1 2 2 2 2 2 3 2 2 2 2 2 1 1 1 1 0 0 1 2 2 3
4 4 4 4 1 2 5 5 6 2 1 1 2 2 2 2 3 3 2 2 2 2 2 2 2 1 1 1 2 2 2 2 2 2 1 1 1 1 1 0 1 1 1 1 1 1 2 2 3
3 5 4 4 4 4 4 5 5 4 3 1 2 2 2 1 2 2 2 1 1 1 1 1 1 2 1 1 2 2 2 2 1 1 1 1 1 1 1 1 1 1 1 1 2 2 2 2 2
3 3 4 4 4 5 4 6 4 6 5 4 3 3 3 2 2 2 1 0 1 1 1 0 0 0 1 1 1 1 1 1 1 1 1 1 1 1 1 1 2 2 2 2 2 2 2 2 3
4 5 6 5 4 4 4 6 4 3 3 3 2 1 1 1 1 2 1 1 1 1 1 1 1 1 1 1 1 1 1 1 1 1 1 1 1 1 1 1 1 2 2 2 2 2 2 3 3
Wind_Direction
330 337 56 58 58 58 238 252 218 178 104 83 91 99 107 106 128 150 156 144 134 139 142 142 139 136 130 126 122 117 116 113 110 107 104 100 100 99 98 96 96 96 94 92 90 90 89 88 85
334 355 55 62 99 157 262 250 218 214 182 144 80 89 92 88 91 114 126 143 134 136 137 138 135 134 131 127 124 120 119 116 112 109 105 102 101 100 98 98 97 98 96 93 91 89 88 86 83
329 47 82 83 138 188 219 232 207 218 193 120 76 65 105 126 131 146 157 137 126 129 134 136 135 133 131 128 125 123 121 120 116 111 107 103 103 102 100 99 96 97 98 94 93 90 86 84 80
46 50 60 90 214 231 215 223 202 172 50 65 109 81 71 51 160 151 129 124 121 123 131 135 135 135 132 127 124 124 123 121 118 116 112 108 107 106 105 105 100 99 101 99 97 93 89 83 77
61 80 81 190 241 255 246 240 190 173 154 78 111 114 75 346 102 119 122 122 124 126 130 133 132 131 130 127 125 123 126 124 122 120 117 112 107 108 110 113 110 106 108 107 104 98 92 83 74
60 76 118 214 238 255 267 257 195 139 126 89 106 120 137 354 113 124 124 122 125 129 124 130 131 130 130 129 128 127 130 132 128 124 122 119 115 114 114 117 115 110 106 111 111 107 98 86 73
114 121 178 199 225 259 264 274 168 159 133 168 135 121 142 210 147 128 120 115 113 116 120 123 129 126 126 127 129 129 130 132 132 127 126 127 125 121 120 119 119 117 109 111 117 109 101 84 72
133 126 186 203 205 242 286 342 80 145 162 48 108 136 180 199 154 119 108 105 104 108 113 117 122 126 126 125 127 128 129 131 130 125 121 124 128 129 125 122 123 123 121 117 121 115 109 90 69
101 100 201 211 199 227 304 50 351 17 91 49 46 137 167 143 126 112 104 97 106 114 114 116 116 120 128 129 127 126 125 128 129 124 120 118 109 117 125 128 135 131 127 123 123 133 120 89 63
103 167 214 221 212 195 329 57 333 62 57 49 47 48 93 116 122 122 125 128 136 146 141 132 124 120 124 126 117 114 115 118 123 122 117 110 103 109 119 137 144 138 128 116 81 140 102 51 6
150 187 211 261 288 158 46 7 17 115 165 190 155 138 125 123 127 131 136 139 150 149 139 141 133 127 126 117 117 116 111 108 111 117 123 118 103 95 87 103 118 120 109 89 25 16 359 321 303
163 242 211 253 321 50 90 65 13 177 213 189 159 149 139 143 151 153 151 147 142 129 134 142 130 127 128 124 121 125 117 108 110 132 140 121 105 95 88 82 76 85 83 31 16 358 328 313 286
201 250 272 223 48 61 67 74 268 271 238 155 137 142 149 154 153 152 148 141 134 136 138 142 140 138 134 121 125 126 129 130 131 129 134 132 123 135 119 106 78 44 29 16 352 341 340 322 318
202 234 280 263 244 352 65 316 338 264 173 128 144 165 169 159 154 139 137 141 142 148 155 140 141 137 130 133 138 127 131 135 127 113 122 131 128 129 135 137 122 348 340 334 302 312 298 295 290
141 350 315 278 217 218 86 314 244 240 138 148 164 164 164 170 156 155 158 155 159 156 150 138 140 113 123 133 131 104 102 112 111 109 118 124 128 130 129 151 181 272 276 63 39 11 2 329 322
72 75 272 278 193 187 138 252 260 227 150 176 180 176 171 186 175 173 161 150 147 141 143 154 135 126 127 120 114 100 102 104 105 110 116 122 131 131 128 140 202 219 112 81 166 108 327 325 326
86 212 235 272 199 155 172 239 263 216 175 199 199 194 183 189 199 194 171 156 155 154 154 151 137 150 148 123 109 104 96 92 97 102 107 127 131 136 134 144 155 118 106 130 206 209 252 294 320
210 211 223 232 233 158 206 242 265 247 198 212 212 204 192 194 211 199 175 160 151 148 144 144 136 144 141 118 105 92 80 73 74 84 79 102 125 142 138 140 130 123 152 192 197 222 288 264 299
182 183 228 249 242 194 227 249 261 252 220 219 217 208 205 215 216 176 161 140 122 112 124 144 140 150 137 126 135 140 175 169 112 51 49 48 127 159 155 156 152 151 191 207 201 182 240 316 344
202 213 245 284 321 211 262 271 264 243 218 210 205 202 201 200 188 179 157 134 140 142 140 140 152 154 155 158 168 169 179 179 157 35 4 333 239 196 181 166 179 191 195 198 181 147 174 310 14
222 210 218 244 329 345 332 296 275 268 232 215 205 196 193 191 191 191 185 180 162 164 176 172 177 168 163 142 120 95 84 57 46 331 284 308 286 230 204 176 166 182 185 199 205 181 171 210 262
229 222 204 204 166 269 174 271 275 263 270 231 221 208 203 198 191 185 183 182 184 194 189 171 176 181 171 144 151 155 167 197 225 226 237 287 303 285 213 174 166 183 191 204 216 203 193 182 212
210 194 166 181 170 279 245 212 279 272 248 243 230 218 213 203 191 188 189 188 184 175 167 179 168 174 169 160 161 168 188 209 217 222 252 267 286 316 308 218 188 200 205 209 217 216 205 196 203
155 75 53 56 92 253 226 192 269 238 225 229 228 215 208 194 184 177 171 149 136 131 127 117 131 140 151 167 172 180 189 188 187 215 237 265 261 272 293 268 227 225 215 210 219 215 212 209 212
118 109 57 347 302 243 219 203 248 250 242 213 212 208 194 177 168 162 154 147 152 155 149 128 138 159 191 185 204 203 200 191 198 215 217 225 248 256 242 245 231 228 228 221 210 223 230 210 208
191 156 167 197 217 262 237 224 252 267 268 204 183 175 164 167 169 173 170 167 173 172 162 157 169 186 222 224 229 214 203 202 211 219 222 219 227 239 238 215 212 222 222 246 235 253 234 195 201
160 190 171 140 149 249 255 269 295 290 313 123 140 137 149 176 173 173 164 161 169 177 185 181 182 215 258 242 231 218 205 207 217 218 222 222 228 239 223 244 207 226 211 214 207 249 244 203 207
154 148 116 144 173 237 267 253 235 244 241 214 171 185 204 195 182 175 167 165 160 186 185 162 176 205 241 244 230 228 215 216 212 192 212 225 235 233 194 203 218 224 223 214 206 230 251 218 229
153 155 149 150 169 178 239 260 225 209 212 201 201 211 216 214 201 185 179 157 75 52 57 80 209 249 290 261 227 202 196 194 191 202 218 226 232 227 220 231 233 234 231 225 218 230 243 225 236
187 181 157 169 219 191 199 262 280 211 207 181 191 222 237 241 208 186 170 110 61 38 12 346 299 271 282 270 206 197 180 152 179 231 244 237 239 246 238 243 240 238 239 233 222 239 249 239 235
Height
1508 1509 1509 1511 1514 1524 1523 1515 1508 1506 1506 1505 1505 1505 1507 1512 1515 1521 1519 1518 1520 1521 1523 1525 1526 1527 1528 1529 1530 1530 1531 1531 1532 1532 1532 1532 1533 1533 1533 1533 1533 1533 1533 1532 1533 1533 1533 1533 1533
1508 1509 1511 1511 1520 1529 1523 1512 1508 1505 1504 1505 1505 1506 1508 1511 1513 1515 1516 1518 1520 1521 1523 1524 1525 1527 1528 1529 1530 1530 1531 1531 1531 1532 1532 1533 1533 1533 1533 1533 1533 1533 1533 1533 1533 1533 1533 1533 1533
1507 1508 1510 1513 1521 1524 1516 1508 1505 1503 1503 1504 1506 1508 1510 1512 1513 1514 1516 1517 1519 1521 1522 1524 1525 1526 1527 1528 1529 1530 1530 1531 1531 1532 1532 1533 1533 1533 1533 1534 1534 1534 1534 1534 1533 1533 1533 1534 1533
1508 1509 1510 1517 1518 1514 1508 1504 1503 1503 1503 1504 1505 1509 1511 1513 1513 1514 1515 1517 1519 1520 1522 1523 1525 1526 1527 1528 1529 1529 1530 1530 1531 1531 1532 1532 1533 1533 1533 1534 1534 1534 1534 1534 1534 1534 1534 1534 1534
1507 1508 1514 1520 1515 1510 1505 1503 1503 1503 1503 1504 1505 1509 1511 1513 1513 1514 1515 1517 1518 1520 1522 1523 1524 1525 1526 1527 1528 1529 1529 1530 1531 1531 1532 1532 1532 1533 1533 1533 1533 1533 1533 1533 1533 1534 1534 1534 1534
1507 1508 1519 1521 1514 1507 1504 1503 1503 1503 1503 1504 1505 1508 1511 1513 1513 1514 1515 1517 1518 1519 1521 1522 1524 1525 1526 1527 1527 1528 1529 1529 1530 1530 1531 1532 1532 1532 1532 1533 1533 1533 1533 1533 1533 1533 1533 1533 1533
1507 1511 1515 1514 1512 1508 1504 1502 1503 1503 1503 1504 1505 1508 1510 1512 1513 1514 1515 1517 1518 1519 1520 1522 1523 1524 1525 1526 1526 1527 1528 1528 1529 1529 1530 1531 1531 1531 1532 1532 1532 1532 1532 1532 1532 1532 1533 1533 1533
1505 1510 1511 1512 1510 1507 1503 1502 1502 1503 1504 1505 1505 1507 1509 1511 1512 1514 1515 1516 1518 1519 1520 1521 1522 1523 1524 1525 1525 1526 1527 1527 1528 1529 1529 1529 1530 1530 1531 1531 1531 1531 1532 1532 1532 1532 1532 1532 1532
1505 1512 1514 1509 1507 1505 1502 1502 1502 1503 1503 1504 1505 1506 1507 1510 1511 1513 1514 1515 1517 1518 1519 1520 1521 1522 1522 1523 1524 1525 1526 1526 1527 1527 1528 1528 1529 1529 1530 1530 1530 1530 1530 1531 1531 1531 1531 1531 1531
1504 1512 1508 1504 1503 1502 1502 1502 1502 1503 1503 1504 1505 1506 1507 1508 1510 1512 1513 1514 1515 1516 1518 1519 1519 1520 1521 1522 1523 1524 1524 1525 1525 1526 1526 1527 1527 1528 1528 1528 1528 1529 1529 1529 1529 1530 1529 1529 1529
1503 1506 1503 1502 1501 1501 1501 1502 1502 1502 1504 1504 1504 1505 1507 1508 1509 1511 1512 1513 1514 1515 1516 1517 1518 1519 1520 1521 1521 1522 1523 1523 1524 1524 1524 1525 1525 1526 1526 1526 1527 1527 1527 1527 1527 1528 1527 1527 1527
1503 1502 1502 1501 1501 1501 1501 1502 1502 1502 1502 1503 1503 1504 1505 1507 1508 1509 1511 1512 1513 1514 1515 1516 1517 1518 1519 1519 1520 1521 1521 1522 1522 1523 1523 1523 1523 1524 1524 1524 1525 1525 1525 1525 1525 1525 1525 1525 1525
1501 1501 1501 1501 1501 1501 1501 1501 1502 1501 1502 1502 1503 1503 1505 1506 1507 1508 1510 1511 1512 1513 1514 1515 1516 1516 1517 1518 1518 1519 1519 1520 1520 1520 1521 1521 1521 1521 1521 1522 1522 1523 1523 1523 1523 1523 1523 1523 1523
1500 1500 1500 1500 1500 1501 1501 1501 1502 1500 1500 1501 1501 1502 1503 1504 1505 1506 1508 1509 1511 1512 1512 1513 1514 1515 1516 1516 1516 1517 1517 1518 1518 1518 1518 1519 1519 1519 1519 1519 1520 1520 1520 1520 1520 1520 1520 1520 1520
1499 1501 1501 1500 1499 1500 1501 1503 1501 1498 1499 1499 1500 1501 1501 1502 1503 1504 1505 1507 1509 1510 1511 1512 1512 1513 1513 1514 1514 1515 1515 1515 1516 1516 1516 1516 1516 1517 1517 1517 1517 1517 1518 1518 1518 1518 1517 1517 1517
1500 1503 1505 1500 1499 1500 1504 1506 1498 1497 1497 1498 1499 1500 1500 1501 1502 1503 1504 1505 1507 1508 1509 1510 1510 1511 1511 1512 1512 1512 1513 1513 1513 1513 1513 1514 1514 1514 1514 1514 1514 1514 1515 1515 1515 1515 1515 1514 1514
1504 1507 1505 1501 1498 1499 1503 1503 1497 1496 1496 1496 1497 1498 1499 1500 1500 1501 1503 1504 1505 1506 1507 1508 1508 1508 1509 1509 1510 1510 1510 1510 1510 1511 1511 1511 1511 1511 1511 1511 1511 1511 1511 1512 1512 1512 1511 1511 1510
1505 1505 1503 1502 1499 1500 1502 1501 1496 1494 1494 1494 1495 1495 1496 1497 1498 1500 1501 1502 1503 1504 1504 1505 1506 1506 1507 1507 1507 1507 1508 1507 1508 1508 1508 1508 1508 1508 1508 1508 1508 1508 1508 1508 1508 1508 1508 1507 1507
1499 1501 1502 1501 1498 1500 1500 1499 1494 1492 1492 1492 1492 1492 1493 1494 1496 1497 1498 1499 1500 1501 1501 1502 1503 1503 1504 1504 1504 1504 1504 1504 1504 1505 1505 1505 1505 1505 1505 1505 1505 1505 1505 1505 1505 1504 1504 1504 1504
1498 1501 1502 1500 1498 1500 1500 1497 1492 1489 1488 1487 1488 1489 1490 1491 1493 1494 1495 1496 1497 1498 1499 1499 1500 1501 1501 1501 1501 1502 1502 1501 1501 1501 1502 1501 1501 1501 1501 1501 1501 1501 1501 1501 1501 1501 1501 1500 1501
1499 1501 1501 1501 1500 1500 1501 1498 1491 1487 1485 1485 1486 1486 1487 1488 1489 1490 1492 1493 1494 1495 1496 1497 1497 1498 1498 1499 1499 1499 1499 1498 1498 1498 1498 1498 1498 1497 1497 1497 1497 1498 1498 1497 1497 1497 1497 1497 1497
1499 1497 1498 1499 1504 1508 1505 1508 1493 1487 1485 1483 1483 1483 1484 1485 1486 1488 1489 1490 1491 1492 1493 1494 1495 1495 1495 1496 1496 1495 1495 1494 1494 1494 1494 1494 1494 1494 1494 1494 1494 1494 1494 1494 1493 1493 1493 1494 1494
1496 1495 1497 1500 1504 1509 1506 1510 1496 1488 1485 1482 1480 1480 1480 1482 1483 1485 1486 1487 1489 1490 1490 1491 1491 1492 1492 1492 1492 1492 1492 1492 1491 1491 1491 1490 1490 1490 1490 1490 1490 1490 1490 1490 1489 1489 1489 1490 1490
1494 1497 1500 1505 1509 1512 1505 1508 1498 1488 1480 1478 1478 1478 1478 1479 1481 1482 1484 1485 1486 1487 1487 1488 1488 1488 1489 1489 1489 1489 1488 1488 1488 1487 1487 1486 1486 1486 1486 1486 1486 1486 1486 1485 1485 1485 1485 1486 1487
1495 1503 1512 1512 1518 1510 1501 1502 1493 1480 1476 1475 1476 1476 1476 1477 1478 1480 1481 1482 1483 1484 1484 1485 1485 1485 1486 1486 1486 1486 1485 1485 1485 1484 1484 1483 1482 1482 1482 1482 1482 1482 1482 1482 1481 1481 1481 1482 1482
1495 1498 1508 1509 1510 1506 1501 1500 1486 1477 1474 1473 1474 1475 1476 1477 1477 1478 1479 1480 1480 1481 1481 1482 1482 1482 1482 1483 1483 1483 1482 1482 1482 1481 1481 1480 1479 1479 1479 1478 1478 1478 1478 1478 1478 1477 1477 1478 1478
1494 1498 1498 1507 1511 1510 1501 1493 1483 1475 1474 1474 1474 1475 1475 1476 1476 1477 1477 1478 1478 1479 1479 1479 1479 1479 1479 1480 1480 1479 1479 1479 1478 1478 1478 1477 1476 1476 1476 1475 1475 1475 1475 1474 1474 1473 1473 1474 1474
1491 1494 1502 1507 1509 1503 1497 1493 1486 1478 1476 1474 1474 1474 1474 1475 1475 1475 1476 1476 1476 1477 1477 1477 1477 1477 1477 1476 1476 1476 1476 1475 1475 1475 1474 1474 1473 1473 1473 1472 1473 1472 1471 1471 1470 1470 1470 1470 1470
1493 1495 1498 1505 1506 1505 1501 1490 1476 1474 1473 1473 1473 1473 1474 1474 1474 1474 1474 1474 1474 1474 1474 1474 1474 1474 1474 1474 1473 1473 1472 1472 1472 1472 1471 1471 1470 1470 1470 1469 1469 1469 1468 1468 1468 1467 1467 1466 1466
1490 1491 1496 1501 1504 1506 1506 1492 1472 1472 1472 1472 1473 1473 1473 1473 1473 1473 1473 1473 1473 1472 1472 1472 1472 1472 1471 1471 1470 1470 1469 1469 1469 1469 1468 1468 1468 1467 1467 1466 1466 1466 1465 1465 1464 1464 1463 1463 1463